Weather in Hammamet

Tunisia     36°22′54″N   10°32′24″E
temp.,
°C
wind,
m/s
gust,
m/s
humid.,
%
clouds,
%
prec.,
mm/h
press.,
hPa
HPBL,
m
7 may, fri
fri701:00+16sw0177100 0.1 101622
04:00+16nnw2280100 0.0 101674
07:00+17nnw347695 0.0 1016225
10:00+21nw566128 0.0 1017891
13:00+22nw776342 0.0 10171031
16:00+22nnw775624 0.0 10161208
19:00+19nnw59510 0.0 1017371
22:00+16nw34600 0.0 101866
8 may, sat
sat801:00+14nw45700 0.0 101873
04:00+14nw45770 0.0 101871
07:00+17nw411640 0.0 1019474
10:00+23nw67420 0.0 1019899
13:00+26nnw77330 0.0 10181473
16:00+24n78410 0.0 1018845
19:00+18n36630 0.0 1018157
22:00+16nnw23770 0.0 101936
9 may, sun
sun901:00+15w116935 0.0 101811
04:00+16s226431 0.0 101715
07:00+18sse346097 0.0 1017175
10:00+24sse66405 0.0 1017691
13:00+25sse6734100 0.0 1017737
16:00+23se4536100 0.0 1015474
19:00+18se346169 0.0 1016125
22:00+16sse488895 0.0 1017230
10 may, mon
mon1001:00+15sse46890 0.0 1016122
04:00+15sse49940 0.0 1016204
07:00+18sse597314 0.0 1016397
10:00+22sse7105210 0.0 1016652
13:00+24sse8104753 0.0 1015675
16:00+23se58515 0.0 1014558
19:00+18se347473 0.0 1014161
22:00+15se34950 0.0 101598
11 may, tue
tue1101:00+15sse369718 0.0 1014171
04:00+15se4109845 0.0 1012290
07:00+17nw228543 0.0 1014311
10:00+24n56490 0.0 1015968
13:00+27n77423 0.0 10141305
16:00+25n910433 0.0 10141308
19:00+20nnw712465 0.0 1016719
22:00+17nw713645 0.0 1018643